Pori, Finland

4:47 AM EEST on March 26, 2017 (GMT +0300)
Pori

Weather History for EFPO - December, 2012

Change the Weather History Date:

Sunday, December 30, 2012

  Actual Average (EFTP) Record (EFTP)
Temperature  
Mean Temperature 35 °F -  
Max Temperature 37 °F 24 °F 39 °F (2007)
Min Temperature 33 °F 14 °F -16 °F (2002)
Degree Days  
Heating Degree Days 30    
Moisture  
Dew Point 35 °F    
Average Humidity 100    
Maximum Humidity 100    
Minimum Humidity 100    
Precipitation  
Precipitation 0.00 in - - ()
Sea Level Pressure  
Sea Level Pressure 29.54 in    
Wind  
Wind Speed 13 mph ()    
Max Wind Speed 21 mph    
Max Gust Speed -    
Visibility 3.8 miles    
Events Rain    
Averages and records for this station are not official NWS values.
T = Trace of Precipitation, MM = Missing Value Source: Averaged Metar Reports

Daily Weather History Graph

Daily Weather History Graph

Search for Another Location

Airport or City:

Trip Planner

Search our weather history database for the weather conditions in past years. The results will help you decide how hot, cold, wet, or windy it might be!

Date:

Astronomy

Dec. 30, 2012 Rise Set
Actual Time 9:50 AM EET 3:20 PM EET
Civil Twilight 8:48 AM EET 4:22 PM EET
Nautical Twilight 7:48 AM EET 5:22 PM EET
Astronomical Twilight 6:54 AM EET 6:16 PM EET
Moon 6:24 PM EET (12/30) 10:03 AM EET (12/30)
Length of Visible Light 7h 34m
Length of Day
5h 29m
Waning Gibbous, 96% of the Moon is Illuminated
Dec 30
Waning Gibbous
Jan 5
Last Quarter
Jan 11
New
Jan 19
First Quarter
Jan 27
Full

Hourly Weather History & Observations

Time (EET) Temp. Windchill Dew Point Humidity Pressure Visibility Wind Dir Wind Speed Gust Speed Precip Events Conditions
12:20 AM 33.8 °F 23.5 °F 33.8 °F 100% 29.71 in 4.3 mi SSE 16.1 mph - N/A   Drizzle
12:50 AM 33.8 °F 23.5 °F 33.8 °F 100% 29.71 in 4.3 mi SSE 16.1 mph - N/A Rain Light Rain
1:20 AM 33.8 °F 23.9 °F 33.8 °F 100% 29.71 in 2.8 mi SSE 15.0 mph - N/A Rain Light Rain
1:50 AM 33.8 °F 23.5 °F 33.8 °F 100% 29.71 in 3.7 mi SSE 16.1 mph - N/A Rain Light Rain
2:20 AM 33.8 °F 23.9 °F 33.8 °F 100% 29.68 in 5.6 mi SSE 15.0 mph - N/A   Overcast
2:50 AM 33.8 °F 23.5 °F 33.8 °F 100% 29.68 in 3.7 mi SSE 16.1 mph - N/A Rain Light Rain Showers
3:20 AM 33.8 °F 23.9 °F 33.8 °F 100% 29.68 in 5.6 mi SSE 15.0 mph - N/A   Overcast
3:50 AM 33.8 °F 23.9 °F 33.8 °F 100% 29.68 in - SSE 15.0 mph - N/A Rain Light Rain Showers
4:20 AM 33.8 °F 23.5 °F 33.8 °F 100% 29.65 in 6.2 mi SSE 16.1 mph - N/A   Overcast
4:50 AM 33.8 °F 23.5 °F 33.8 °F 100% 29.65 in 4.3 mi SSE 16.1 mph - N/A   Overcast
5:20 AM 33.8 °F 23.5 °F 33.8 °F 100% 29.65 in - SSE 16.1 mph - N/A   Overcast
5:50 AM 33.8 °F 24.3 °F 33.8 °F 100% 29.62 in - SSE 13.8 mph - N/A   Overcast
6:20 AM 35.6 °F 26.6 °F 35.6 °F 100% 29.62 in 1.9 mi SSE 13.8 mph - N/A   Overcast
6:50 AM 35.6 °F 26.2 °F 35.6 °F 100% 29.62 in - SSE 15.0 mph - N/A   Overcast
7:20 AM 35.6 °F 26.2 °F 35.6 °F 100% 29.59 in 3.1 mi SSE 15.0 mph - N/A   Overcast
7:50 AM 35.6 °F 25.9 °F 35.6 °F 100% 29.59 in - SSE 16.1 mph - N/A   Overcast
8:20 AM 35.6 °F 25.9 °F 35.6 °F 100% 29.59 in 1.2 mi SSE 16.1 mph - N/A   Overcast
8:50 AM 35.6 °F 25.9 °F 35.6 °F 100% 29.59 in 1.7 mi SSE 16.1 mph - N/A   Overcast
9:20 AM 35.6 °F 26.2 °F 35.6 °F 100% 29.59 in 1.6 mi SSE 15.0 mph - N/A   Overcast
9:50 AM 35.6 °F 25.9 °F 35.6 °F 100% 29.56 in 1.1 mi SSE 16.1 mph - N/A   Overcast
10:20 AM 37.4 °F 27.8 °F 37.4 °F 100% 29.56 in 1.1 mi SSE 17.3 mph - N/A   Overcast
10:50 AM 37.4 °F 28.5 °F 37.4 °F 100% 29.56 in 1.2 mi SSE 15.0 mph - N/A   Overcast
11:20 AM 37.4 °F 28.2 °F 37.4 °F 100% 29.56 in - SSE 16.1 mph - N/A   Overcast
11:50 AM 37.4 °F 27.8 °F 37.4 °F 100% 29.56 in - SSE 17.3 mph - N/A   Overcast
12:20 PM 37.4 °F 28.9 °F 37.4 °F 100% 29.56 in 3.7 mi SSE 13.8 mph - N/A   Overcast
12:50 PM 37.4 °F 28.9 °F 37.4 °F 100% 29.53 in - SSE 13.8 mph - N/A   Overcast
1:20 PM 37.4 °F 28.9 °F 37.4 °F 100% 29.53 in - SSE 13.8 mph - N/A   Overcast
1:50 PM 37.4 °F 26.9 °F 37.4 °F 100% 29.50 in 1.2 mi SSE 20.7 mph - N/A   Overcast
2:20 PM 37.4 °F 28.9 °F 37.4 °F 100% 29.50 in 1.2 mi SSE 13.8 mph - N/A   Overcast
2:50 PM 35.6 °F 25.9 °F 35.6 °F 100% 29.50 in 1.9 mi SSE 16.1 mph - N/A   Overcast
3:20 PM 35.6 °F 26.6 °F 35.6 °F 100% 29.50 in 1.6 mi SSE 13.8 mph - N/A   Overcast
3:50 PM 35.6 °F 27.5 °F 35.6 °F 100% 29.50 in 1.8 mi SSE 11.5 mph - N/A   Overcast
4:20 PM 35.6 °F 27.5 °F 35.6 °F 100% 29.47 in 1.8 mi SSE 11.5 mph - N/A   Drizzle
4:50 PM 35.6 °F 27.5 °F 35.6 °F 100% 29.47 in 3.1 mi SSE 11.5 mph - N/A Rain Rain
5:20 PM 35.6 °F 28.0 °F 35.6 °F 100% 29.47 in 5.0 mi SSE 10.4 mph - N/A Rain Light Rain
5:50 PM 35.6 °F 27.5 °F 35.6 °F 100% 29.47 in 5.6 mi SSE 11.5 mph - N/A Rain Light Rain
6:20 PM 35.6 °F 28.6 °F 35.6 °F 100% 29.44 in 6.2 mi SSE 9.2 mph - N/A Rain Light Rain
6:50 PM 35.6 °F 29.2 °F 35.6 °F 100% 29.44 in 6.2 mi SSE 8.1 mph - N/A Rain Light Rain
7:20 PM 35.6 °F 29.2 °F 35.6 °F 100% 29.44 in 5.0 mi SSE 8.1 mph - N/A Rain Light Rain
7:50 PM 35.6 °F 29.9 °F 35.6 °F 100% 29.44 in 6.2 mi SSE 6.9 mph - N/A Rain Light Rain
8:20 PM 35.6 °F 29.9 °F 35.6 °F 100% 29.42 in 5.6 mi SSE 6.9 mph - N/A Rain Light Rain
8:50 PM 35.6 °F 29.9 °F 35.6 °F 100% 29.42 in 6.2 mi SSE 6.9 mph - N/A Rain Light Rain
9:20 PM 35.6 °F 29.9 °F 35.6 °F 100% 29.42 in 6.2 mi SSE 6.9 mph - N/A   Drizzle
9:50 PM 35.6 °F 29.9 °F 35.6 °F 100% 29.42 in 6.2 mi South 6.9 mph - N/A Rain Light Rain
10:20 PM 35.6 °F 29.2 °F 35.6 °F 100% 29.39 in 6.2 mi SSE 8.1 mph - N/A Rain Light Rain
10:50 PM 35.6 °F 29.9 °F 35.6 °F 100% 29.39 in 5.6 mi South 6.9 mph - N/A   Drizzle
11:20 PM 35.6 °F 29.9 °F 35.6 °F 100% 29.39 in 6.2 mi South 6.9 mph - N/A   Drizzle
11:50 PM 35.6 °F 30.7 °F 35.6 °F 100% 29.39 in 3.7 mi South 5.8 mph - N/A   Drizzle